PEGASUS DEB, 39926

Orbit data source: Space-Track

PEGASUS DEB, 39926 is space debris in LEO originally from a launch on Thu, 19 May 1994 UTC launched from the Air Force Western Test Range (AFWTR). Debris objects in space refer to the collection of defunct objects orbiting the Earth. Examples of debris include non-operational satellites, rocket bodies, and fragments generated from explosions, collisions, or faulty payload assembly.

Loading next visibility...
Identifier
39926, 1994-029AFZ
Orbit
LEO
Country
Flag of USUS
Related business
Manufacturer
Unknown
Mission
Spacecraft
Bus & Motor
Unknown
Mass
Unknown
Launch date (UTC)
1994-05-19 (32 years ago)
Launch vehicle
Unknown
Launch site
Air Force Western Test Range (AFWTR)
Object type
Payload
Rocket body
Debris
Shape & HBR
Unknown shape, 0.1 m
Radar Cross Section
Small (<0.1 m²)

Expand to show TLE details & history
Last TLE update: 2 days ago

TLE from 2 days ago
0 PEGASUS DEB
1 39926U 94029AFZ 26174.49110686  .00001089  00000-0  28929-3 0  9999
2 39926  81.8405 255.4733 0298230 149.1053 231.9928 14.24561727623647
Epoch: 2026-06-23T11:47Z
TLE epoch observation values (Epoch: 2026-06-23T11:47:11.632Z)
Latitude
18.26587°
Longitude
169.7113°
Altitude
948.257 km
Speed
7.309 km/s
True Right ascension
17h 12m 41s
True Declination
18° 09' 59"
Sunlit
Object was in full shadow at epoch
Visualization orbit readout
Latitude
Unknown
Longitude
Unknown
Altitude
Unknown
Speed
Unknown
Apparent Right ascension
Unknown
Apparent Declination
Unknown
Sunlit
N/A
Visualization observer readout
Local Sidereal Time
00:05:01
Azimuth
Unknown
Elevation
Unknown
Doppler factor
Unknown
Orbital elements
Apogee altitude
1,021.375 km
Perigee altitude
592.805 km
Semi-major axis
7,185.227 km
Eccentricity
0.02982
Inclination
81.8405°
RAAN
255.4733°
Arg. of periapsis
149.1053°
True anomaly
229.36147°
Mean anomaly
231.9928°
Eccentric anomaly
230.67106°
Mean motion
3.56355 °/min
Orbital period
101.02 mins
BSTAR
0.00028929
Loading maneuver chart data...
Computing Atmospheric mass density...

Documentation

Showing up to 5 results
|